Flag for Canada Weather past 2 weeks in Thunder Bay, Ontario, Canada

Now
50 °F

Partly sunny.


Feels Like: 48 °F
Forecast: N/A
Wind: 6 mph from Northeast

Location: Thunder Bay

Current Time: Oct 24, 2014 at 7:18:01 PM

Latest Report: Oct 24, 2014 at 7:00 PM


Visibility: 20 mi

Pressure: 29.68 "Hg

Humidity: 88%

Dew point: 46 °F

Location of Thunder BayLocation

Historic Weather in Thunder Bay — Graph

°F

Thunder Bay temperature yesterday

Maximum temperature yesterday: 50 °F (at 3:00 PM)
Minimum temperature yesterday: 45 °F (at 12:48 AM)
Average temperature yesterday: 47 °F

Past Weeks' High & Low Weather Summary

 TemperatureHumidityPressure
High64 °F (Oct 14, 3:00 PM)100% (Oct 11, 1:00 AM)30.35 "Hg (Oct 11, 1:00 AM)
Low25 °F (Oct 22, 7:00 AM)37% (Oct 14, 5:00 PM)29.55 "Hg (Oct 17, 4:00 AM)
Average43 °F82%30.00 "Hg
* Reported Oct 9 6:00 PM — Oct 24 6:00 PM, Thunder Bay, Weather by CustomWeather, © 2014

Note: Actual official high and low records may vary slightly from our data, if they occured in-between our weather recording intervals... More about our weather records

Advertising

Thunder Bay weather history for previous 24 hours

 ConditionsComfort  
Time TempWeatherWind HumidityBarometerVisibility
6:00 PM
Oct 24
59 °FPartly sunny.5 mph68%29.68 "Hg20 mi
5:00 PM61 °FPartly sunny.10 mph63%29.70 "Hg20 mi
4:00 PM59 °FBroken clouds.8 mph72%29.72 "Hg20 mi
3:00 PM63 °FPartly sunny.7 mph59%29.74 "Hg20 mi
2:00 PM57 °FPartly sunny.2 mph72%29.78 "Hg10 mi
1:00 PM54 °FPartly sunny.No wind82%29.81 "Hg10 mi
12:00 PM52 °FMostly cloudy.5 mph88%29.84 "Hg10 mi
11:00 AM50 °FLow clouds.6 mph94%29.85 "Hg8 mi
10:00 AM50 °FMore clouds than sun.3 mph94%29.86 "Hg10 mi
9:00 AM48 °FMostly cloudy.5 mph94%29.88 "Hg10 mi
8:00 AM48 °FMostly cloudy.3 mph94%29.88 "Hg8 mi
7:00 AM48 °FLow clouds.6 mph94%29.90 "Hg10 mi
6:00 AM48 °FLow clouds.3 mph94%29.91 "Hg10 mi
5:00 AM48 °FLow clouds.5 mph94%29.92 "Hg10 mi
4:00 AM46 °FLow clouds.3 mph93%29.92 "Hg10 mi
3:00 AM48 °FLow clouds.2 mph87%29.94 "Hg10 mi
2:00 AM48 °FLow clouds.7 mph87%29.94 "Hg10 mi
1:00 AM46 °FLow clouds.5 mph93%29.94 "Hg10 mi
12:00 AM48 °FLow clouds.6 mph87%29.95 "Hg10 mi
11:00 PM
Oct 23
48 °FLow clouds.7 mph94%29.95 "Hg10 mi
10:00 PM48 °FLow clouds.5 mph94%29.96 "Hg10 mi
9:00 PM48 °FOvercast.6 mph94%29.95 "Hg8 mi
8:00 PM48 °FOvercast.3 mph94%29.95 "Hg10 mi
7:00 PM48 °FLow clouds.6 mph94%29.95 "Hg10 mi
Weather by CustomWeather, © 2014

See weather overviewHow to use our weather pages